Location: Hancock Field Station
(44.9202°N, 120.4259°W)
Time: 11:55:46
(UTC-07:00)

Nadezhda 4 Rocket - Visible Passes

Search period start: 30 August 2016 00:00
Search period end: 09 September 2016 00:00
Orbit: 950 x 992 km, 82.9° (Epoch: 29 August)

Date Brightness Start Highest point End Pass type
(mag) Time Alt. Az. Time Alt. Az. Time Alt. Az.
30 Aug 4.7 00:06:20 10° NNW 00:11:18 51° NW 00:11:18 51° NW visible
30 Aug 4.8 22:45:20 10° N 22:50:40 39° ENE 22:50:40 39° ENE visible
31 Aug 5.3 00:30:48 10° NNW 00:35:14 33° WNW 00:35:14 33° WNW visible
31 Aug 6.0 21:26:55 10° NE 21:28:57 11° ENE 21:30:02 11° ENE visible
31 Aug 4.3 23:09:13 10° N 23:14:36 59° NE 23:14:36 59° NE visible
01 Sep 5.9 00:55:41 10° NW 00:59:10 20° WNW 00:59:10 20° WNW visible
01 Sep 5.5 21:49:10 10° NNE 21:53:40 20° ENE 21:53:59 20° ENE visible
01 Sep 4.4 23:33:19 10° NNW 23:38:33 60° NW 23:38:33 60° NW visible
02 Sep 6.4 01:21:52 10° WNW 01:23:07 11° WNW 01:23:07 11° WNW visible
02 Sep 4.9 22:12:33 10° N 22:17:56 32° ENE 22:17:56 32° ENE visible
02 Sep 5.0 23:57:40 10° NNW 00:02:30 40° WNW 00:02:30 40° WNW visible
03 Sep 4.3 22:36:19 10° N 22:41:54 52° NE 22:41:54 52° NE visible
04 Sep 5.7 00:22:21 10° NNW 00:26:29 25° WNW 00:26:29 25° WNW visible
04 Sep 5.6 21:16:42 10° NNE 21:20:30 16° ENE 21:21:19 16° ENE visible
04 Sep 4.2 23:00:20 10° N 23:05:53 70° N 23:05:53 70° N visible
05 Sep 6.2 00:47:45 10° NW 00:50:27 15° WNW 00:50:27 15° WNW visible
05 Sep 5.1 21:39:49 10° NNE 21:45:05 27° ENE 21:45:19 27° ENE visible
05 Sep 4.7 23:24:35 10° NNW 23:29:53 50° WNW 23:29:53 50° WNW visible
06 Sep 4.5 22:03:28 10° N 22:09:19 44° ENE 22:09:19 44° ENE visible
06 Sep 5.4 23:49:07 10° NNW 23:53:53 31° WNW 23:53:53 31° WNW visible
07 Sep 5.8 20:44:29 10° NNE 20:47:17 13° ENE 20:48:46 12° ENE visible
07 Sep 4.0 22:27:23 10° N 22:33:20 72° NE 22:33:20 72° NE visible
08 Sep 6.0 00:14:09 10° NW 00:17:55 18° WNW 00:17:55 18° WNW visible
08 Sep 5.3 21:07:10 10° NNE 21:11:58 22° ENE 21:12:48 21° ENE visible
08 Sep 4.3 22:51:33 10° NNW 22:57:22 64° WNW 22:57:22 64° WNW visible
